ネオワイズ彗星

C/2018 N1 ( NEOWISE )

English version
Home page
Updated on March 28, 2019

---------------------------------------------------------------------

・ プロフィール

発見日 2018年7月2日
発見光度 16等
発見者 Near-Earth Object Wide-field Infrared Survey Explorer

・ 写真集

・ 軌道要素

Epoch 2018 July 21.0 TT = JDT 2458320.5
T 2018 Aug. 1.98608 TT                                  MPCW
q   1.3073502            (2000.0)            P               Q
z  +0.0029419      Peri.  354.56231     +0.46200652     -0.82535782
 +/-0.0002180      Node   292.43988     -0.79988424     -0.54584664
e   0.9961539      Incl.  159.44289     -0.38306028     +0.14434654
From 235 observations 2018 June 29-Oct. 6, mean residual 0".5.

・ 星図

・ 光度変化

        m1 = 9.0 + 5 logΔ + 20.0 log r

---------------------------------------------------------------------

軌道要素はM.P.E.C. 2018-U70に掲載されたものです。
星図はステラナビゲータ Ver.10 (アストロアーツ) で作成したものです。
光度グラフはComet for Windowsで作成したものです。

---------------------------------------------------------------------

Copyright(C) Seiichi Yoshida (comet@aerith.net). All rights reserved.